EW7504 Weather Reports


Display with metric or nautical units.
time (UTC)temp
F
wind
direction
speed
MPH
gust
MPH
rain 1hr
in
rain 24hr
in
rain mn
in
humidity
%
barometer
mb
20260506013156 71 288 9.0 15.0 0.00 0.29 0.14 27 1014.8
20260506011650 72 281 11.0 14.0 0.00 0.29 0.14 24 1014.9
20260506010147 73 270 2.0 16.0 0.00 0.29 0.14 24 1014.6
20260506004644 74 257 8.0 17.0 0.00 0.31 0.14 24 1014.5
20260506003148 74 266 9.0 18.0 0.00 0.31 0.14 24 1014.2
20260506001643 75 253 7.0 17.0 0.00 0.31 0.14 24 1014.2
20260506000209 75 276 8.0 14.0 0.00 0.31 0.14 24 1014.3
20260505234647 75 253 7.0 14.0 0.00 0.31 0.14 25 1014.0
20260505233159 76 200 7.0 15.0 0.00 0.31 0.14 24 1013.9
20260505231646 76 229 6.0 15.0 0.00 0.31 0.14 24 1013.9
20260505230144 76 242 9.0 14.0 0.00 0.31 0.14 24 1013.9
20260505224719 76 211 8.0 16.0 0.00 0.31 0.14 24 1014.1
20260505223158 76 241 10.0 19.0 0.00 0.31 0.14 24 1014.1
20260505221720 76 242 8.0 16.0 0.00 0.31 0.14 24 1014.3
20260505220142 76 279 8.0 21.0 0.00 0.31 0.14 26 1014.4
20260505214701 76 255 7.0 21.0 0.00 0.31 0.14 27 1014.7
20260505213211 76 243 9.0 23.0 0.00 0.31 0.14 27 1014.8
20260505211648 75 275 11.0 21.0 0.00 0.31 0.14 28 1014.7
20260505210153 75 265 15.0 21.0 0.00 0.31 0.14 30 1014.7
20260505204655 75 269 14.0 21.0 0.00 0.31 0.14 31 1014.8
20260505203153 75 240 7.0 24.0 0.00 0.31 0.14 33 1014.8
20260505201657 75 243 5.0 17.0 0.00 0.31 0.14 34 1015.0
20260505200141 75 277 6.0 12.0 0.00 0.31 0.14 35 1014.9
20260505194641 73 181 2.0 10.0 0.00 0.31 0.14 43 1015.0
20260505193200 72 281 3.0 9.0 0.00 0.31 0.14 42 1015.5
20260505191641 74 186 0.0 10.0 0.00 0.31 0.14 44 1015.4
20260505190141 72 187 3.0 9.0 0.00 0.31 0.14 44 1015.5
20260505184641 71 180 3.0 9.0 0.00 0.31 0.14 47 1016.0
20260505183041 70 180 4.0 7.0 0.00 0.31 0.14 51 1016.2
20260505181643 70 180 3.0 8.0 0.00 0.31 0.14 51 1016.2
20260505180141 69 80 0.0 8.0 0.00 0.31 0.14 51 1016.3
20260505174526 69 78 3.0 7.0 0.00 0.31 0.14 53 1016.5
20260505173219 67 78 0.0 4.0 0.00 0.31 0.14 54 1016.3
20260505171655 66 78 0.0 0.0 0.00 0.31 0.14 58 1016.8
20260505170138 65 77 0.0 5.0 0.00 0.31 0.14 59 1016.6
20260505164656 64 78 0.0 1.0 0.00 0.31 0.14 60 1016.4
20260505163145 64 78 1.0 4.0 0.00 0.31 0.14 62 1016.7
20260505161652 63 78 0.0 2.0 0.00 0.31 0.14 64 1016.7
20260505160210 62 78 0.0 3.0 0.00 0.31 0.14 65 1016.6
20260505153147 60 78 0.0 3.0 0.00 0.31 0.14 71 1016.5
20260505151640 59 78 0.0 3.0 0.00 0.31 0.14 73 1016.4
20260505150147 59 78 2.0 2.0 0.00 0.31 0.14 74 1016.4
20260505140140 58 78 0.0 1.0 0.00 0.31 0.14 76 1015.9
20260505130150 58 78 0.0 2.0 0.01 0.31 0.14 77 1015.5
20260505124657 58 78 0.0 1.0 0.01 0.31 0.14 77 1015.4
20260505123143 58 78 0.0 2.0 0.01 0.31 0.13 77 1015.6
20260505121709 58 78 1.0 2.0 0.01 0.31 0.13 78 1015.3
20260505120144 58 78 0.0 0.0 0.00 0.30 0.13 78 1015.1
20260505114652 58 78 0.0 2.0 0.02 0.30 0.13 78 1015.0
20260505113146 58 78 0.0 2.0 0.02 0.30 0.13 78 1014.9
20260505111718 58 78 0.0 2.0 0.02 0.30 0.13 78 1015.5
20260505101655 58 78 2.0 3.0 0.02 0.28 0.11 79 1016.1
20260505100149 58 78 0.0 6.0 0.02 0.28 0.11 79 1016.5
20260505094640 58 78 5.0 9.0 0.03 0.28 0.11 79 1016.3
20260505093154 58 78 2.0 9.0 0.03 0.28 0.09 79 1016.5
20260505091644 58 78 3.0 9.0 0.02 0.26 0.09 80 1017.1
20260505090140 58 75 4.0 9.0 0.02 0.26 0.08 80 1016.9
20260505084637 58 73 4.0 9.0 0.03 0.25 0.08 80 1017.5
20260505083152 58 70 2.0 8.0 0.05 0.25 0.07 79 1018.2
20260505081657 58 70 4.0 7.0 0.05 0.24 0.07 79 1018.2
20260505080152 58 70 1.0 3.0 0.07 0.24 0.03 79 1018.6
20260505074648 58 70 2.0 4.0 0.06 0.22 0.03 79 1018.9
20260505073137 59 70 0.0 3.0 0.05 0.20 0.00 79 1019.0
20260505071646 59 70 1.0 3.0 0.05 0.19 0.00 78 1018.8
20260505070213 59 70 0.0 3.0 0.04 0.17 0.00 78 1018.9
20260505064642 59 70 0.0 0.0 0.04 0.16 0.16 77 1018.6
20260505063209 59 70 0.0 2.0 0.04 0.16 0.13 77 1018.3
20260505061702 59 70 1.0 3.0 0.03 0.14 0.13 77 1018.6
20260505060143 59 70 0.0 0.0 0.02 0.13 0.12 76 1018.6
20260505054710 59 70 0.0 2.0 0.01 0.12 0.12 75 1018.3
20260505053152 59 70 1.0 3.0 0.02 0.12 0.11 76 1018.3
20260505051645 59 70 0.0 1.0 0.01 0.11 0.11 75 1018.6
20260505050157 59 70 0.0 2.0 0.01 0.11 0.10 75 1018.7
20260505041645 58 70 0.0 2.0 0.00 0.10 0.10 73 1018.7
20260505040211 58 70 0.0 5.0 0.00 0.10 0.10 71 1018.9
20260505034657 58 70 0.0 9.0 0.02 0.10 0.10 71 1018.1
20260505033146 58 66 4.0 9.0 0.04 0.10 0.10 72 1017.8
20260505031716 57 42 5.0 13.0 0.05 0.10 0.10 73 1017.4
20260505030147 58 55 3.0 9.0 0.05 0.10 0.06 71 1018.2
20260505024642 59 41 5.0 7.0 0.05 0.09 0.06 71 1018.5
20260505023152 60 0 1.0 6.0 0.03 0.06 0.05 67 1018.9
20260505021651 60 318 2.0 3.0 0.02 0.05 0.05 63 1018.8
20260505020144 61 318 1.0 9.0 0.03 0.05 0.03 57 1018.6
20260505014639 62 295 2.0 6.0 0.02 0.04 0.03 62 1018.2